Weather History for Ottawa International, ON

Change the Weather History Date:

Monday, December 3, 2012

  Actual Average Record
Temperature  
Mean Temperature 36 °F -  
Max Temperature 38 °F 25 °F 46 °F (2001)
Min Temperature 34 °F 10 °F -2 °F (2002)
Degree Days  
Heating Degree Days 29    
Moisture  
Dew Point 34 °F    
Average Humidity 87    
Maximum Humidity 93    
Minimum Humidity 70    
Precipitation  
Precipitation 0.00 in 0.11 in - ()
Sea Level Pressure  
Sea Level Pressure 30.18 in    
Wind  
Wind Speed 8 mph ()    
Max Wind Speed 16 mph    
Max Gust Speed -    
Visibility 14.6 miles    
Events      
Averages and records for this station are not official NWS values.
T = Trace of Precipitation, MM = Missing Value Source: Averaged Metar Reports

Daily Weather History Graph

Daily Weather History Graph

Search for Another Location

Airport:

Trip Planner

Search our weather history database for the weather conditions in past years. The results will help you decide how hot, cold, wet, or windy it might be!

Date:

Astronomy

Dec. 03, 2012 Rise Set
Actual Time 7:24 AM EST 4:20 PM EST
Civil Twilight 6:51 AM EST 4:54 PM EST
Nautical Twilight 6:14 AM EST 5:31 PM EST
Astronomical Twilight 5:38 AM EST 6:06 PM EST
Moon 9:12 PM EST (12/3) 10:39 AM EST (12/3)
Length of Visible Light 10h 03m
Length of Day
8h 56m
Waning Gibbous, 78% of the Moon is Illuminated
Dec 3
Waning Gibbous
Dec 6
Last Quarter
Dec 13
New
Dec 20
First Quarter
Dec 28
Full

Hourly Weather History & Observations

Time (EST) Temp. Windchill Dew Point Humidity Pressure Visibility Wind Dir Wind Speed Gust Speed Precip Events Conditions
12:00 AM 41.0 °F 32.8 °F 39.2 °F 93% 29.98 in 15.0 mi West 16.1 mph - N/A   Overcast
12:18 AM 41.0 °F 32.8 °F 39.2 °F 93% 30.00 in 15.0 mi West 16.1 mph - N/A   Overcast
1:00 AM 40 °F - 37 °F 87% 30.03 in 15 mi West 11.5 mph - -   Partly Cloudy
1:00 AM 39.2 °F 31.2 °F 37.4 °F 93% 30.02 in 15.0 mi WNW 13.8 mph - N/A   Overcast
2:00 AM 37.4 °F 30.3 °F 35.6 °F 93% 30.08 in 15.0 mi West 10.4 mph - N/A   Overcast
2:23 AM 37.4 °F 29.8 °F 35.6 °F 93% 30.10 in 15.0 mi West 11.5 mph - N/A   Overcast
3:00 AM 37.4 °F 30.8 °F 33.8 °F 87% 30.12 in 15.0 mi WNW 9.2 mph - N/A   Overcast
4:00 AM 37.4 °F 32.8 °F 33.8 °F 87% 30.13 in 15.0 mi West 5.8 mph - N/A   Overcast
5:00 AM 35.6 °F 29.9 °F 33.8 °F 93% 30.16 in 15.0 mi West 6.9 mph - N/A   Overcast
6:00 AM 35.6 °F 31.7 °F 32.0 °F 87% 30.18 in 15.0 mi West 4.6 mph - N/A   Overcast
7:00 AM 35 °F - 33 °F 88% 30.21 in 15 mi WSW 4.6 mph - -   Overcast
7:00 AM 35.6 °F 31.7 °F 32.0 °F 87% 30.20 in 15.0 mi WSW 4.6 mph - N/A   Overcast
8:00 AM 35.6 °F 30.7 °F 33.8 °F 93% 30.24 in 15.0 mi WSW 5.8 mph - N/A   Overcast
9:00 AM 35.6 °F 31.7 °F 33.8 °F 93% 30.25 in 12.0 mi West 4.6 mph - N/A   Overcast
10:00 AM 37.4 °F 34.9 °F 33.8 °F 87% 30.25 in 12.0 mi West 3.5 mph - N/A   Overcast
11:00 AM 37.4 °F 34.9 °F 33.8 °F 87% 30.26 in 12.0 mi West 3.5 mph - N/A   Overcast
12:00 PM 39.2 °F - 33.8 °F 81% 30.24 in 12.0 mi NW 2.3 mph - N/A   Overcast
1:00 PM 38 °F - 32 °F 70% 30.24 in 15 mi West 4.6 mph - -   Overcast
1:00 PM 39.2 °F 35.9 °F 32.0 °F 75% 30.24 in 15.0 mi West 4.6 mph - N/A   Overcast
2:00 PM 37.4 °F - 30.2 °F 75% 30.24 in 15.0 mi Calm Calm - N/A   Overcast
3:00 PM 37.4 °F - 30.2 °F 75% 30.24 in 15.0 mi Calm Calm - N/A   Overcast
4:00 PM 37.4 °F 34.9 °F 32.0 °F 81% 30.24 in 15.0 mi East 3.5 mph - N/A   Overcast
5:00 PM 35.6 °F 30.7 °F 32.0 °F 87% 30.24 in 15.0 mi East 5.8 mph - N/A   Overcast
6:00 PM 35.6 °F 29.9 °F 32.0 °F 87% 30.24 in 15.0 mi ESE 6.9 mph - N/A   Overcast
7:00 PM 36 °F - 33 °F 85% 30.25 in 15 mi ESE 5.8 mph - -   Overcast
7:00 PM 37.4 °F 32.8 °F 33.8 °F 87% 30.24 in 15.0 mi ESE 5.8 mph - N/A   Overcast
8:00 PM 35.6 °F 31.7 °F 33.8 °F 93% 30.23 in 15.0 mi East 4.6 mph - N/A   Overcast
9:00 PM 35.6 °F 31.7 °F 33.8 °F 93% 30.20 in 15.0 mi East 4.6 mph - N/A   Overcast
10:00 PM 35.6 °F 31.7 °F 33.8 °F 93% 30.20 in 15.0 mi East 4.6 mph - N/A   Overcast
11:00 PM 37.4 °F 32.1 °F 33.8 °F 87% 30.19 in 15.0 mi ESE 6.9 mph - N/A   Overcast